Search
Race

Overall

Place Bib Name Age Sex City State Time
1 79 Pete Rainey 48 M Minneapolis MN 1:04:34
2 11 Greg Jaeger 40 M Woodbury MN 1:04:39
3 2403 Michelle Eversman 34 F Eden Prairie MN 1:08:35
4 2634 Braden Beam 49 M Saint Louis Park MN 1:12:30
5 2541 Kelli Deeg 33 F Minnetonka MN 1:13:09
6 12 Jim Winkels 44 M Waconia MN 1:14:14
7 1128 Austin Budlong 36 M Minneapolis MN 1:15:47
8 1403 Steven Wert 25 M Waconia MN 1:15:48
9 1807 Erin Rapallini 39 F Edina MN 1:15:54
10 507 Tom Tardif 28 M Lino Lakes MN 1:17:16
11 1055 Dylan Bothun 27 M Burnsville MN 1:18:03
12 1053 Charles McGlynn 31 M Minneapolis MN 1:18:16
13 396 Robert Stuart 48 M St. Paul MN 1:19:08
14 1052 Lindsay Hefferan 30 F Minneapolis MN 1:19:13
15 2239 Kathleen Dewahl 30 F Minneapolis MN 1:19:15
16 1261 Alfredo Calderon 35 M Minneapolis MN 1:19:50
17 13 Scott Carlson 44 M Bloomington MN 1:19:53
18 2344 Jennifer Sullivan 45 F Minnetonka MN 1:19:55
19 2668 Brent Johnson 39 M Bloomington MN 1:20:07
20 2755 Ted Hewes 53 M St. Paul MN 1:20:14
21 1859 Dave Vornwald 51 M Savage MN 1:20:29
22 1206 Laura Klein 44 F Elk River MN 1:20:59
23 1488 Lynn Schwob 45 F Waconia MN 1:21:19
24 703 Corinne Fisketjon 35 F Shakopee MN 1:21:20
25 763 Bruce Quiram 25 M Waterville MN 1:21:21
26 2635 Jennifer Koontz 43 F Saint Louis Park MN 1:21:23
27 1348 Gerry Neville 57 M Shakopee MN 1:21:27
28 2436 Mallory Perdue 30 F Brooklyn Park MN 1:22:14
29 2815 James Solheid 51 M Lakeville MN 1:22:50
30 2582 Christina Catron 41 F Waconia MN 1:23:03
31 2844 Sarah Jorczak 40 F Plymouth MN 1:23:11
32 2845 Theresa Bergren 43 F Chanhassen MN 1:23:11
33 349 Brian Lande 34 M Chanhassen MN 1:23:22
34 919 Benjamin Freeman 46 M Farmington MN 1:24:17
35 2358 Courtney Miernicki 33 F Excelsior MN 1:24:31
36 2316 Andrea White 42 F Victoria MN 1:24:32
37 2383 Andrew Templin 33 M Norwood MN 1:24:53
38 2666 1:24:58
39 14 Jake Von De Linde 39 M Roseville MN 1:24:59
40 1932 Meredith Bassett 32 F Eagan MN 1:25:06
41 1896 Jackie Couette 29 F Annandale MN 1:25:06
42 480 Rebecca Gebhardt 35 F Maple Grove MN 1:25:17
43 1993 1:25:21
44 871 Warren Knapp 45 M Rosemount MN 1:25:22
45 424 Sue Leiendecker 53 F Chanhassen MN 1:26:09
46 2803 Amanda Caron 32 F Roseville MN 1:26:10
47 2280 Summer Woodward 37 F Chaska MN 1:26:28
48 2419 Lisa Sipprell 45 F Minnetrista MN 1:26:45
49 2838 Kristin Murch 32 F St. Paul MN 1:26:55
50 2460 John Weber 47 M Waconia MN 1:27:10
Next